TimeCDT,TemperatureF,Dew PointF,Humidity,Sea Level PressureIn,VisibilityMPH,Wind Direction,Wind SpeedMPH,Gust SpeedMPH,PrecipitationIn,Events,Conditions,WindDirDegrees,DateUTC
12:15 AM,66.2,57.2,73,29.96,10.0,North,3.5,-,N/A,,Clear,360,2013-06-30 05:15:00
12:35 AM,64.4,57.2,77,29.96,10.0,NNE,4.6,-,N/A,,Clear,20,2013-06-30 05:35:00
12:55 AM,62.6,57.2,82,29.97,10.0,NNE,5.8,-,N/A,,Clear,20,2013-06-30 05:55:00
1:15 AM,62.6,57.2,82,29.97,10.0,NNE,6.9,-,N/A,,Clear,20,2013-06-30 06:15:00
1:35 AM,62.6,59.0,88,29.98,10.0,North,5.8,-,N/A,,Unknown,10,2013-06-30 06:35:00
1:55 AM,60.8,59.0,94,29.98,10.0,North,6.9,-,N/A,,Unknown,10,2013-06-30 06:55:00
2:15 AM,60.8,59.0,94,29.98,10.0,North,5.8,-,N/A,,Scattered Clouds,10,2013-06-30 07:15:00
2:35 AM,60.8,57.2,88,29.98,10.0,North,5.8,-,N/A,,Partly Cloudy,360,2013-06-30 07:35:00
2:55 AM,60.8,57.2,88,29.99,10.0,North,4.6,-,N/A,,Clear,360,2013-06-30 07:55:00
3:15 AM,60.8,57.2,88,30.00,10.0,NW,5.8,-,N/A,,Clear,320,2013-06-30 08:15:00
3:35 AM,59.0,57.2,94,29.99,10.0,North,5.8,-,N/A,,Clear,350,2013-06-30 08:35:00
3:55 AM,59.0,57.2,94,30.00,10.0,North,5.8,-,N/A,,Clear,350,2013-06-30 08:55:00
4:15 AM,59.0,57.2,94,30.00,10.0,North,5.8,-,N/A,,Clear,350,2013-06-30 09:15:00
4:35 AM,59.0,57.2,94,30.00,10.0,North,5.8,-,N/A,,Unknown,350,2013-06-30 09:35:00
4:55 AM,59.0,57.2,94,30.01,10.0,North,5.8,-,N/A,,Unknown,10,2013-06-30 09:55:00
5:15 AM,59.0,57.2,94,30.01,10.0,NNE,4.6,-,N/A,,Unknown,20,2013-06-30 10:15:00
5:35 AM,57.2,57.2,100,30.01,10.0,NNE,5.8,-,N/A,,Overcast,20,2013-06-30 10:35:00
5:55 AM,59.0,57.2,94,30.02,10.0,North,5.8,-,N/A,,Scattered Clouds,10,2013-06-30 10:55:00
6:15 AM,57.2,57.2,100,30.02,10.0,NNE,5.8,-,N/A,,Clear,20,2013-06-30 11:15:00
6:35 AM,59.0,57.2,94,30.02,10.0,North,5.8,-,N/A,,Clear,10,2013-06-30 11:35:00
6:55 AM,59.0,57.2,94,30.03,10.0,NNW,4.6,-,N/A,,Clear,340,2013-06-30 11:55:00
7:15 AM,59.0,59.0,100,30.03,10.0,North,4.6,-,N/A,,Clear,350,2013-06-30 12:15:00
7:35 AM,59.0,59.0,100,30.04,10.0,NNW,5.8,-,N/A,,Clear,340,2013-06-30 12:35:00
7:55 AM,60.8,59.0,94,30.05,10.0,North,5.8,-,N/A,,Clear,350,2013-06-30 12:55:00
8:15 AM,60.8,59.0,94,30.05,10.0,North,8.1,-,N/A,,Mostly Cloudy,350,2013-06-30 13:15:00
8:35 AM,62.6,59.0,88,30.05,10.0,North,8.1,-,N/A,,Partly Cloudy,10,2013-06-30 13:35:00
8:55 AM,64.4,60.8,88,30.07,10.0,North,5.8,-,N/A,,Scattered Clouds,350,2013-06-30 13:55:00
9:15 AM,64.4,59.0,83,30.07,10.0,North,8.1,-,N/A,,Scattered Clouds,360,2013-06-30 14:15:00
9:35 AM,66.2,59.0,78,30.07,10.0,North,8.1,-,N/A,,Clear,350,2013-06-30 14:35:00
9:55 AM,66.2,59.0,78,30.07,10.0,Variable,6.9,-,N/A,,Clear,0,2013-06-30 14:55:00
10:15 AM,68.0,59.0,73,30.06,10.0,North,9.2,-,N/A,,Clear,350,2013-06-30 15:15:00
10:35 AM,69.8,57.2,64,30.06,10.0,North,8.1,-,N/A,,Clear,10,2013-06-30 15:35:00
10:55 AM,69.8,57.2,64,30.07,10.0,North,11.5,-,N/A,,Clear,360,2013-06-30 15:55:00
11:15 AM,71.6,57.2,60,30.07,10.0,North,12.7,-,N/A,,Clear,10,2013-06-30 16:15:00
11:35 AM,71.6,55.4,57,30.07,10.0,NNE,12.7,-,N/A,,Clear,20,2013-06-30 16:35:00
11:55 AM,73.4,53.6,50,30.07,10.0,NNE,15.0,-,N/A,,Clear,20,2013-06-30 16:55:00
12:15 PM,73.4,50.0,44,30.07,10.0,North,13.8,-,N/A,,Clear,10,2013-06-30 17:15:00
12:35 PM,73.4,51.8,47,30.07,10.0,North,10.4,-,N/A,,Clear,10,2013-06-30 17:35:00
12:55 PM,73.4,51.8,47,30.07,10.0,North,10.4,17.3,N/A,,Clear,360,2013-06-30 17:55:00
1:15 PM,75.2,51.8,44,30.07,10.0,North,12.7,-,N/A,,Clear,10,2013-06-30 18:15:00
1:35 PM,75.2,51.8,44,30.07,10.0,NE,15.0,-,N/A,,Clear,40,2013-06-30 18:35:00
1:55 PM,75.2,53.6,47,30.07,10.0,NNE,12.7,-,N/A,,Clear,20,2013-06-30 18:55:00
2:15 PM,75.2,51.8,44,30.06,10.0,North,13.8,20.7,N/A,,Clear,10,2013-06-30 19:15:00
2:35 PM,75.2,53.6,47,30.07,10.0,North,11.5,21.9,N/A,,Clear,360,2013-06-30 19:35:00
2:55 PM,77.0,53.6,44,30.06,10.0,NNE,12.7,19.6,N/A,,Clear,30,2013-06-30 19:55:00
3:15 PM,77.0,51.8,41,30.06,10.0,NNE,12.7,-,N/A,,Clear,20,2013-06-30 20:15:00
3:35 PM,77.0,51.8,41,30.06,10.0,NNE,12.7,18.4,N/A,,Clear,20,2013-06-30 20:35:00
3:55 PM,77.0,51.8,41,30.06,10.0,NE,12.7,-,N/A,,Clear,50,2013-06-30 20:55:00
4:15 PM,77.0,51.8,41,30.06,10.0,NNE,10.4,18.4,N/A,,Clear,30,2013-06-30 21:15:00
4:35 PM,77.0,53.6,44,30.06,10.0,ENE,11.5,17.3,N/A,,Clear,60,2013-06-30 21:35:00
4:55 PM,78.8,53.6,42,30.06,10.0,North,9.2,16.1,N/A,,Partly Cloudy,10,2013-06-30 21:55:00
5:15 PM,75.2,51.8,44,30.06,10.0,NNE,9.2,17.3,N/A,,Partly Cloudy,30,2013-06-30 22:15:00
5:35 PM,77.0,51.8,41,30.06,10.0,North,12.7,-,N/A,,Clear,10,2013-06-30 22:35:00
5:55 PM,77.0,51.8,41,30.06,10.0,NNE,9.2,19.6,N/A,,Scattered Clouds,30,2013-06-30 22:55:00
6:15 PM,77.0,51.8,41,30.06,10.0,NNE,13.8,-,N/A,,Partly Cloudy,30,2013-06-30 23:15:00
6:35 PM,75.2,53.6,47,30.06,10.0,NNE,10.4,-,N/A,,Partly Cloudy,30,2013-06-30 23:35:00
6:55 PM,75.2,51.8,44,30.07,10.0,NE,8.1,-,N/A,,Clear,40,2013-06-30 23:55:00
7:15 PM,75.2,50.0,41,30.07,10.0,North,-9999.0,-,N/A,,Clear,0,2013-07-01 00:15:00
7:35 PM,73.4,50.0,44,30.07,10.0,North,-9999.0,-,N/A,,Clear,0,2013-07-01 00:35:00
7:55 PM,71.6,53.6,53,30.07,10.0,North,-9999.0,-,N/A,,Clear,0,2013-07-01 00:55:00
8:15 PM,71.6,53.6,53,30.07,10.0,North,-9999.0,-,N/A,,Clear,0,2013-07-01 01:15:00
8:35 PM,69.8,51.8,53,30.08,10.0,NNE,5.8,-,N/A,,Clear,30,2013-07-01 01:35:00
8:55 PM,68.0,51.8,56,30.08,10.0,NE,6.9,-,N/A,,Clear,40,2013-07-01 01:55:00
9:15 PM,66.2,50.0,56,30.08,10.0,NE,5.8,-,N/A,,Clear,40,2013-07-01 02:15:00
9:35 PM,68.0,50.0,52,30.09,10.0,NNE,5.8,-,N/A,,Unknown,30,2013-07-01 02:35:00
9:55 PM,68.0,51.8,56,30.10,10.0,North,4.6,-,N/A,,Mostly Cloudy,10,2013-07-01 02:55:00
10:15 PM,68.0,51.8,56,30.10,10.0,North,4.6,-,N/A,,Unknown,360,2013-07-01 03:15:00
10:35 PM,66.2,53.6,64,30.11,10.0,North,4.6,-,N/A,,Unknown,350,2013-07-01 03:35:00
10:55 PM,64.4,53.6,68,30.11,10.0,NNE,5.8,-,N/A,,Mostly Cloudy,20,2013-07-01 03:55:00
11:15 PM,64.4,51.8,64,30.11,10.0,NNE,5.8,-,N/A,,Unknown,30,2013-07-01 04:15:00
11:35 PM,64.4,51.8,64,30.12,10.0,NNE,5.8,-,N/A,,Scattered Clouds,20,2013-07-01 04:35:00
11:55 PM,62.6,51.8,68,30.12,10.0,North,6.9,-,N/A,,Mostly Cloudy,10,2013-07-01 04:55:00